Location: Caicara
(10.0977°N, 67.3123°W)
Time: 05:25:18
(UTC+00:00)

Daily predictions for brighter satellites

Satellite Brightness Start Highest point End
(mag) Time Altitude Azimuth Time Altitude Azimuth Time Altitude Azimuth
RESURS DK-1 3.6 00:00:50 10° S 00:02:47 26° S 00:02:47 26° S
Cosmos 1271 Rocket 4.1 00:01:50 10° SSW 00:05:25 39° W 00:08:56 10° NNW
Cosmos 2242 Rocket 4.3 00:01:27 10° NNW 00:05:50 53° W 00:10:11 10° S
CZ-4B R/B 3.3 00:02:43 10° S 00:08:23 84° WSW 00:14:02 10° NNW
Cosmos 2237 Rocket 2.8 00:04:07 10° N 00:08:21 36° NE 00:08:21 36° NE
Centaur D-1A AC-32 3.3 00:09:58 10° W 00:13:18 42° NNW 00:15:34 27° NE
GPS 2-14 Rocket1 3.4 00:11:32 10° W 00:14:32 45° WSW 00:14:32 45° WSW
Feng Yun 1-1 Rocket 4.1 00:22:22 52° SSE 00:23:46 87° ENE 00:29:20 10° NNW
Meteor 1-22 Rocket 4.4 00:21:48 10° S 00:27:50 81° W 00:33:57 10° N
Cosmos 1980 3.8 00:26:23 10° NNW 00:31:08 62° N 00:31:08 62° N
Milstar 3 Cent rocket 3.5 00:30:22 10° WNW 00:37:33 87° SSW 00:41:31 49° ESE
Ariane H10-3 3.2 00:37:36 10° W 00:49:57 44° SSW 00:49:57 44° SSW
ATLAS 2AS CENTAUR R/B 3.5 00:50:47 10° SW 00:58:14 54° WNW 01:05:39 10° N
ATLAS 5 CENTAUR R/B 4.4 02:01:18 10° WNW 02:31:28 55° W 02:31:28 55° W
CZ-3 R/B 4.1 07:19:17 10° WNW 08:11:16 76° NNE 08:22:22 10° ESE
USA 234 4.4 08:11:08 10° ENE 08:17:06 37° SE 08:20:02 25° S
SL-8 Rocket 4.3 08:24:25 14° S 08:29:59 66° E 08:36:12 10° NNE
Okean 1 4.3 08:44:31 37° SE 08:45:27 45° E 08:49:10 10° NNE
Helios 1B rocket 3.5 08:43:57 10° NNE 08:46:21 36° NNE 08:46:21 36° NNE
Atlas Centaur 2 4.5 08:55:38 18° SSW 08:55:38 18° SSW 09:00:23 10° S
Cosmos 1697 Rocket 3.0 08:56:50 43° NW 08:56:50 43° NW 09:01:35 10° N
Cosmos 864 Rocket 4.3 08:53:40 10° S 08:59:49 79° W 09:05:55 10° N
Timation 1 Rocket 4.3 08:54:45 10° NNW 09:00:38 61° WSW 09:06:29 10° S
ASTRO E2 3.7 09:05:37 31° NNW 09:05:37 31° NNW 09:08:37 10° NE
Meteor 1-14 Rocket 4.4 09:01:40 10° NNW 09:07:01 47° W 09:12:28 10° SSW
Cosmos 1328 Rocket 3.7 09:09:56 46° WNW 09:09:56 46° WNW 09:13:48 10° N
ARIANE 5 R/B 3.6 09:06:32 10° NNW 09:09:48 27° NW 09:09:48 27° NW
Cosmos 1371 Rocket 3.9 09:05:56 10° NNW 09:11:00 60° WSW 09:16:08 10° S
USA 215 3.9 09:06:49 10° S 09:12:25 31° SW 09:13:32 29° WSW
Ariane 44P Rocket 4.0 09:12:31 30° SW 09:14:55 55° SSE 09:36:53 10° E
Cosmos 1980 Rocket 2.1 09:10:50 11° SSW 09:16:22 73° WNW 09:22:02 10° N
GP-B 3.3 09:14:07 10° NNW 09:18:21 47° W 09:22:35 10° SSW
Cosmos 2056 Rocket 3.6 09:13:26 10° NNW 09:18:33 53° WSW 09:23:45 10° S
Hubble Space Telescope 2.9 09:20:34 13° SSW 09:20:34 13° SSW 09:21:48 10° S
Meteor 1-27 Rocket 4.4 09:19:24 26° WSW 09:21:22 32° W 09:26:28 10° NNW
Maqsat-H 4.0 09:18:06 16° SW 09:22:23 39° SSE 09:44:08 10° E
Cosmos 972 Rocket 4.4 09:18:03 10° NNW 09:23:02 38° W 09:27:39 10° SSW
Meteor 2-4 Rocket 4.0 09:21:41 10° S 09:26:58 66° E 09:32:16 10° NNE
H-2A R/B 2.7 09:23:04 10° NNE 09:27:53 55° ESE 09:32:47 10° S
Meteor 2-11 Rocket 4.4 09:22:23 10° S 09:28:33 88° W 09:34:42 10° N
Spot 4 Rocket 4.2 09:23:46 10° N 09:28:43 50° WNW 09:33:41 10° SSW
Cosmos 1536 2.7 09:25:40 10° N 09:29:37 70° W 09:33:36 10° S
Cosmos 1624 Rocket 4.4 09:25:23 10° NW 09:30:13 38° W 09:35:02 10° SSW
Cosmos 1420 Rocket 4.4 09:25:56 10° NNW 09:30:44 39° W 09:35:35 10° S
GENESIS II 4.4 09:29:06 25° SW 09:30:58 46° WNW 09:34:42 10° N
CZ-2C R/B 1.8 09:34:38 25° WSW 09:35:57 33° SW 09:39:13 10° SSE
Cosmos 1867 4.4 09:32:50 13° WNW 09:36:33 27° WSW 09:41:02 10° SSW
USA 290 4.2 09:38:42 14° NW 09:38:42 14° NW 09:39:44 10° NW
Cosmos 2297 Rocket 3.2 09:33:53 10° N 09:39:21 51° ENE 09:44:49 10° SSE
GPS 2-18 Rocket1 2.6 09:37:54 22° WNW 09:39:54 77° SSW 09:43:15 10° ESE
OAO 3 Rocket 3.3 09:36:46 10° NW 09:41:41 78° NE 09:46:37 10° ESE
Gbstr 26 Del rocket 3.1 09:43:32 10° SW 09:48:38 71° NW 09:52:48 10° NNE
Cosmos 2369 4.4 09:44:03 10° SW 09:49:05 33° WNW 09:54:08 10° N
DELTA 2 DEB (DPAF) 4.3 09:47:15 10° SSE 09:51:37 79° ENE 09:55:58 10° N
SWIFT 3.0 09:48:48 14° W 09:51:56 37° SSW 09:55:49 10° SE
GPS 2-17 Rocket1 4.1 09:50:33 13° WSW 09:53:40 28° SSW 09:57:28 10° SE
SL-24 R/B - RUBIN 2 4.4 09:50:03 10° S 09:54:15 51° ESE 09:58:24 10° NE
Cosmos 1452 Rocket 3.6 09:50:34 10° NNW 09:55:50 88° ENE 10:01:04 10° SSE
Cosmos 2227 Rocket 3.8 09:51:02 10° N 09:56:14 39° ENE 10:01:27 10° SE
DMSP B5D2-2 4.1 09:53:29 10° S 09:58:40 61° WSW 10:03:48 10° NNW
USA 234 4.0 09:54:02 10° NNE 09:59:50 35° NW 10:05:38 10° WSW
GEOS 3 Rocket 4.1 09:54:52 10° SE 09:59:53 64° ENE 10:04:59 10° NNW
Cosmos 1743 4.3 09:59:03 10° WNW 10:00:56 14° W 10:02:50 10° WSW
CZ-2C R/B 3.7 10:00:13 10° NNW 10:03:11 25° WNW 10:06:10 10° SW
ARGOS 3.8 10:01:12 10° NNE 10:06:29 63° ESE 10:11:46 10° S
COBE Rocket 3.9 10:01:42 10° N 10:06:44 82° W 10:11:37 10° SSW
FengYun 1-2 T 4.3 10:01:51 10° N 10:07:14 58° WNW 10:12:37 10° SSW
Cosmos 1933 Rocket 4.1 10:06:52 10° N 10:11:15 66° E 10:15:40 10° SSE
